Location: ??????
(30.0081°N, 31.2109°E)
Time: 08:28:38
(UTC+00:00)

USA 238 DEB - Pass Details

Date: 03 March 2021
Orbit: 995 x 1217 km, 63.4° (Epoch: 11 April)

Event Time Altitude Azimuth Distance (km) Brightness Sun altitude
Rises 17:45:01 0° 196° (SSW) 3,695 6.6 -24.4°
Reaches altitude 10° 17:47:37 10° 192° (SSW) 2,752 5.9 -25.0°
Enters shadow 17:53:22 56° 135° (SE) 1,181 3.6 -26.2°
